This is the latest recevied weather packets stored in our database for station/object EA1AHP-1. If no packets are shown the sender has not sent any weather packets the latest 10 day(s).
| Time | Temp. | Humidity | Pressure | Rain* | Wind** | Luminosity | Snow |
|---|---|---|---|---|---|---|---|
| 1777475811 | 17.78° C | 13% | 918 hPa | 0 mm | - | - | - |
| 1777474911 | 17.78° C | 15% | 918 hPa | 0 mm | - | - | - |
| 1777474011 | 17.22° C | 16% | 918 hPa | 0 mm | - | - | - |
| 1777473113 | 17.22° C | 16% | 918 hPa | 0 mm | - | - | - |
| 1777472211 | 17.22° C | 16% | 918 hPa | 0 mm | - | - | - |
| 1777471311 | 17.22° C | 16% | 918 hPa | 0 mm | - | - | - |
| 1777470411 | 16.67° C | 16% | 918 hPa | 0 mm | - | - | - |
| 1777469512 | 16.67° C | 13% | 918 hPa | 0 mm | - | - | - |
| 1777468611 | 17.78° C | 13% | 918 hPa | 0 mm | - | - | - |
| 1777467712 | 17.78° C | 13% | 918 hPa | 0 mm | - | - | - |
| 1777466811 | 17.78° C | 13% | 918 hPa | 0 mm | - | - | - |
| 1777465912 | 17.78° C | 13% | 918 hPa | 0 mm | - | - | - |
| 1777465012 | 17.78° C | 13% | 918 hPa | 0 mm | - | - | - |
| 1777464112 | 17.78° C | 15% | 918 hPa | 0 mm | - | - | - |
| 1777463211 | 17.78° C | 13% | 918 hPa | 0 mm | - | - | - |
| 1777462312 | 17.78° C | 13% | 918 hPa | 0 mm | - | - | - |
| 1777461411 | 18.33° C | 13% | 918 hPa | 0 mm | - | - | - |
| 1777460512 | 18.33° C | 13% | 918 hPa | 0 mm | - | - | - |
| 1777459611 | 18.33° C | 13% | 918 hPa | 0 mm | - | - | - |
| 1777458712 | 17.22° C | 13% | 918 hPa | 0 mm | - | - | - |
| 1777457812 | 17.22° C | 13% | 918 hPa | 0 mm | - | - | - |
| 1777456912 | 17.22° C | 13% | 918 hPa | 0 mm | - | - | - |
| 1777456012 | 16.67° C | 16% | 918 hPa | 0 mm | - | - | - |
| 1777455112 | 16.67° C | 16% | 918 hPa | 0 mm | - | - | - |
| 1777454212 | 16.11° C | 16% | 918 hPa | 0 mm | - | - | - |
* Rain latest hour (hover to see other rain measurements)
** Current wind speed in m/s (hover to see current wind gust speed)